Delta Virtual Airport Information Service

New York John F. Kennedy International Airport

ICAO: KJFK Country: United States
Latitude: 40.6398 Longitude: -73.7789
Latest Arrival : JBU1106 (KORD-KJFK) Latest Departure : JBU8118 (KJFK-KBOS)


WX CaptureLIVE
Data provided by noaa.gov | Fetched at 11:45:12

METAR : KJFK 151551Z 19008KT 10SM SCT034 BKN043 BKN095 24/18 A2976 RMK AO2 SLP076 T02440178

TAF : KJFK 151601Z 1516/1618 19008KT P6SM VCSH BKN050 TEMPO 1517/1520 23008KT FM152000 29012G20KT P6SM VCSH BKN060 FM152300 31012G20KT P6SM SCT060 FM160500 32010KT P6SM SKC FM161400 32015KT P6SM SKC


Runway Data for KJFK
Data provided by openaviationdata.com

Runway ID Mag Var Hdg Length Elevation Surface ILS Freq ILS Id ILS Slope
04L -14 44° 11353 ft 13 ft Asphalt 110.9 IHIQ 3
04R -14 44° 8401 ft 13 ft Asphalt 109.5 IJFK 3
13L -14 134° 9992 ft 13 ft Asphalt 111.5 ITLK 3
13R -14 134° 14564 ft 13 ft Asphalt -- -- --
22L -14 224° 8401 ft 13 ft Asphalt 110.9 IIWY 3
22R -14 224° 11353 ft 13 ft Asphalt 109.5 IJOC 3
31L -14 314° 14564 ft 13 ft Asphalt 111.35 IMOH 3
31R -14 314° 9992 ft 13 ft Asphalt 111.5 IRTH 3

New York John F. Kennedy International Airport, United States
Use only for reference purposes



Not for navigational purposes.